STARLINK-11235, 60726

Orbit data source: Space-Track

STARLINK-11235, 60726 is a payload satellite owned by SpaceX/Seattle (US) in LEO that was launched on Wed, 28 Aug 2024 UTC via an FALCON 9 launch vehicle from the Air Force Eastern Test Range (AFETR). Payload-class satellites include a variety of spacecraft equipped with specific instruments for various scientific and technological missions. These include communications satellites like Starlink; space stations such as the ISS; scientific satellites like the Hubble; Earth observation satellites from companies like Planet Labs, Umbra, and HawkEye 360; GPS; miniature CubeSats for education and research; and military/defense satellites.

Loading next visibility...
Identifier
60726, 2024-152G
Orbit
LEO
Last TLE update
21 hours ago
Origin
Manufacturer
SpaceX/Seattle
Mission
Operational Commercial Communications
Bus & Motor
STARLINK V2M, Unknown motor
Mass
730 kg wet, ~700 kg dry
Launch date (UTC)
2024-08-28 (8 months ago)
Launch vehicle
FALCON 9
Launch site
Air Force Eastern Test Range (AFETR)
Object type
Payload
Rocket body
Debris
Shape & HBR
Box + 2 Pan, 29 m
Radar Cross Section
36.964 m², Large (>1 m²)

Expand to show TLE details & history

TLE from 21 hours ago
0 STARLINK-11235
1 60726U 24152G   25128.38415876  .00000545  00000-0  93636-5 0  9991
2 60726  53.1593 181.2837 0001278  92.8524 267.2640 15.69703399 41012
Epoch: 2025-05-08T09:13Z
Definitive object data (Epoch: 2025-05-08T09:13:11.316Z)
Latitude
-0.00006°
Longitude
176.53108°
Altitude
360.702 km
Speed
7.694 km/s
True Right ascension
12h 05m 08s
True Declination
0° 00' 00"
Sunlit
Object was in full shadow at TLE epoch
Visualization TLE readout
Latitude
2.7459°
Longitude
174.1804°
Altitude
360.374 km
Speed
7.694 km/s
Apparent Right ascension
08h 48m 56s
Apparent Declination
-39° 24' 29"
Sunlit
Object is in full shadow
Visualization observer readout
Local Sidereal Time
14:46:29
Azimuth
237.501° WSW
Elevation
-23.644°
Doppler factor
1
Orbital elements
Apogee altitude
360.868 km
Perigee altitude
359.145 km
Semi-major axis
6,738.143 km
Eccentricity
0.0001278
Inclination
53.1593°
RAAN
181.2837°
Arg. of periapsis
92.8524°
True anomaly
267.24937°
Mean anomaly
267.264°
Eccentric anomaly
267.25669°
Mean motion
3.92403 °/min
BSTAR
0.0000093636
Orbital period
91.74 mins
Loading maneuver chart data...
Loading SW <> Apogee altitude chart data...
Loading historical data...
Loading historical data...
Loading historical data...
Loading historical data...
Loading historical data...
Loading historical data...
Loading historical data...

STARLINK-11235 Visibility forecast

Observer location: undefined°, undefined°

Span
Click to sort rows by Start time (UTC) header in descending order
Start Az.
Max El. time (UTC)
Max El. Az.
Max El.
End time (UTC)
End Az.
4 mins2025-05-09 06:49:37.945Z263.392° W2025-05-09 06:51:37.945Z317.918° NNW28.991°2025-05-09 06:53:37.945Z24.821° NE
4 mins2025-05-09 13:14:37.945Z294.378° NW2025-05-09 13:16:37.945Z207.017° SW37.641°2025-05-09 13:18:37.945Z149.789° SSE
4 mins2025-05-10 05:43:37.945Z222.752° SW2025-05-10 05:45:37.945Z80.223° E42.826°2025-05-10 05:47:37.945Z53.257° ENE
|